owner,sensor,date,latitude,longitude,vertical_datum,wind_speed,wind_to_direction,wind_speed_of_gust,qcFlag 
NDBC,ioos:station:wmo:42057:1,2017-09-01T00:40:00Z,17.0020,-81.5010,5.0,6.0,90.0,8.0,'1111122,1111122,1111122' 
NDBC,ioos:station:wmo:42057:1,2017-09-01T01:40:00Z,17.0020,-81.5010,5.0,7.0,90.0,9.0,'1111122,1111122,1111122' 
NDBC,ioos:station:wmo:42057:1,2017-09-01T02:40:00Z,17.0020,-81.5010,5.0,8.0,80.0,10.0,'1111122,1111122,1111122' 
NDBC,ioos:station:wmo:42057:1,2017-09-01T03:40:00Z,17.0020,-81.5010,5.0,8.0,90.0,10.0,'1111122,1111122,1111122' 
NDBC,ioos:station:wmo:42057:1,2017-09-01T04:40:00Z,17.0020,-81.5010,5.0,8.0,90.0,10.0,'1111122,1111122,1111122' 
NDBC,ioos:station:wmo:42057:1,2017-09-01T05:50:00Z,17.0020,-81.5010,5.0,8.0,90.0,9.0,'1111122,1111122,1111122' 
NDBC,ioos:station:wmo:42057:1,2017-09-01T06:40:00Z,17.0020,-81.5010,5.0,8.0,90.0,9.0,'1111122,1111122,1111122' 
NDBC,ioos:station:wmo:42057:1,2017-09-01T07:40:00Z,17.0020,-81.5010,5.0,6.0,100.0,8.0,'1111122,1111122,1111122' 
NDBC,ioos:station:wmo:42057:1,2017-09-01T08:40:00Z,17.0020,-81.5010,5.0,7.0,90.0,9.0,'1111122,1111122,1111122' 
NDBC,ioos:station:wmo:42057:1,2017-09-01T09:40:00Z,17.0020,-81.5010,5.0,7.0,100.0,9.0,'1111122,1111122,1111122' 
NDBC,ioos:station:wmo:42057:1,2017-09-01T10:40:00Z,17.0020,-81.5010,5.0,7.0,90.0,9.0,'1111122,1111122,1111122' 
NDBC,ioos:station:wmo:42057:1,2017-09-01T11:40:00Z,17.0020,-81.5010,5.0,7.0,90.0,9.0,'1111122,1111122,1111122' 
NDBC,ioos:station:wmo:42057:1,2017-09-01T12:40:00Z,17.0020,-81.5010,5.0,7.0,90.0,8.0,'1111122,1111122,1111122' 
NDBC,ioos:station:wmo:42057:1,2017-09-01T13:40:00Z,17.0020,-81.5010,5.0,7.0,80.0,8.0,'1111122,1111122,1111122' 
NDBC,ioos:station:wmo:42057:1,2017-09-01T14:40:00Z,17.0020,-81.5010,5.0,7.0,70.0,9.0,'1111122,1111122,1111122' 
NDBC,ioos:station:wmo:42057:1,2017-09-01T15:40:00Z,17.0020,-81.5010,5.0,7.0,80.0,8.0,'1111122,1111122,1111122' 
NDBC,ioos:station:wmo:42057:1,2017-09-01T16:40:00Z,17.0020,-81.5010,5.0,7.0,80.0,9.0,'1111122,1111122,1111122' 
NDBC,ioos:station:wmo:42057:1,2017-09-01T17:40:00Z,17.0020,-81.5010,5.0,7.0,80.0,8.0,'1111122,1111122,1111122' 
NDBC,ioos:station:wmo:42057:1,2017-09-01T18:50:00Z,17.0020,-81.5010,5.0,9.0,80.0,11.0,'1111122,1111122,1111122' 
NDBC,ioos:station:wmo:42057:1,2017-09-01T19:50:00Z,17.0020,-81.5010,5.0,8.0,100.0,10.0,'1111122,1111122,1111122' 
NDBC,ioos:station:wmo:42057:1,2017-09-01T20:50:00Z,17.0020,-81.5010,5.0,7.0,100.0,9.0,'1111122,1111122,1111122' 
NDBC,ioos:station:wmo:42057:1,2017-09-01T21:40:00Z,17.0020,-81.5010,5.0,8.0,100.0,10.0,'1111122,1111122,1111122' 
NDBC,ioos:station:wmo:42057:1,2017-09-01T22:40:00Z,17.0020,-81.5010,5.0,8.0,100.0,9.0,'1111122,1111122,1111122' 
NDBC,ioos:station:wmo:42057:1,2017-09-02T00:50:00Z,17.0020,-81.5010,5.0,8.0,100.0,9.0,'1111122,1111122,1111122' 
NDBC,ioos:station:wmo:42057:1,2017-09-02T01:40:00Z,17.0020,-81.5010,5.0,7.0,100.0,9.0,'1111122,1111122,1111122' 
NDBC,ioos:station:wmo:42057:1,2017-09-02T02:40:00Z,17.0020,-81.5010,5.0,7.0,90.0,9.0,'1111122,1111122,1111122' 
NDBC,ioos:station:wmo:42057:1,2017-09-02T03:40:00Z,17.0020,-81.5010,5.0,7.0,100.0,9.0,'1111122,1111122,1111122' 
NDBC,ioos:station:wmo:42057:1,2017-09-02T04:50:00Z,17.0020,-81.5010,5.0,7.0,100.0,9.0,'1111122,1111122,1111122' 
NDBC,ioos:station:wmo:42057:1,2017-09-02T05:50:00Z,17.0020,-81.5010,5.0,8.0,90.0,10.0,'1111122,1111122,1111122' 
NDBC,ioos:station:wmo:42057:1,2017-09-02T06:40:00Z,17.0020,-81.5010,5.0,9.0,100.0,11.0,'1111122,1111122,1111122' 
NDBC,ioos:station:wmo:42057:1,2017-09-02T07:40:00Z,17.0020,-81.5010,5.0,7.0,100.0,9.0,'1111122,1111122,1111122' 
NDBC,ioos:station:wmo:42057:1,2017-09-02T08:40:00Z,17.0020,-81.5010,5.0,7.0,100.0,9.0,'1111122,1111122,1111122' 
NDBC,ioos:station:wmo:42057:1,2017-09-02T09:40:00Z,17.0020,-81.5010,5.0,7.0,90.0,9.0,'1111122,1111122,1111122' 
NDBC,ioos:station:wmo:42057:1,2017-09-02T10:40:00Z,17.0020,-81.5010,5.0,6.0,90.0,8.0,'1111122,1111122,1111122' 
NDBC,ioos:station:wmo:42057:1,2017-09-02T11:40:00Z,17.0020,-81.5010,5.0,8.0,90.0,9.0,'1111122,1111122,1111122' 
NDBC,ioos:station:wmo:42057:1,2017-09-02T12:40:00Z,17.0020,-81.5010,5.0,8.0,90.0,10.0,'1111122,1111122,1111122' 
NDBC,ioos:station:wmo:42057:1,2017-09-02T13:50:00Z,17.0020,-81.5010,5.0,9.0,90.0,11.0,'1111122,1111122,1111122' 
NDBC,ioos:station:wmo:42057:1,2017-09-02T14:40:00Z,17.0020,-81.5010,5.0,8.0,90.0,9.0,'1111122,1111122,1111122' 
NDBC,ioos:station:wmo:42057:1,2017-09-02T15:40:00Z,17.0020,-81.5010,5.0,8.0,90.0,9.0,'1111122,1111122,1111122' 
NDBC,ioos:station:wmo:42057:1,2017-09-02T16:40:00Z,17.0020,-81.5010,5.0,8.0,90.0,9.0,'1111122,1111122,1111122' 
NDBC,ioos:station:wmo:42057:1,2017-09-02T17:50:00Z,17.0020,-81.5010,5.0,7.0,80.0,8.0,'1111122,1111122,1111122' 
NDBC,ioos:station:wmo:42057:1,2017-09-02T18:40:00Z,17.0020,-81.5010,5.0,6.0,80.0,8.0,'1111122,1111122,1111122' 
NDBC,ioos:station:wmo:42057:1,2017-09-02T19:50:00Z,17.0020,-81.5010,5.0,6.0,80.0,8.0,'1111122,1111122,1111122' 
NDBC,ioos:station:wmo:42057:1,2017-09-02T20:40:00Z,17.0020,-81.5010,5.0,7.0,70.0,9.0,'1111122,1111122,1111122' 
NDBC,ioos:station:wmo:42057:1,2017-09-02T21:40:00Z,17.0020,-81.5010,5.0,8.0,80.0,9.0,'1111122,1111122,1111122' 
NDBC,ioos:station:wmo:42057:1,2017-09-02T22:40:00Z,17.0020,-81.5010,5.0,8.0,70.0,9.0,'1111122,1111122,1111122' 
NDBC,ioos:station:wmo:42057:1,2017-09-02T23:50:00Z,17.0020,-81.5010,5.0,7.0,60.0,9.0,'1111122,1111122,1111122' 
NDBC,ioos:station:wmo:42057:1,2017-09-03T00:50:00Z,17.0020,-81.5010,5.0,7.0,60.0,9.0,'1111122,1111122,1111122' 
NDBC,ioos:station:wmo:42057:1,2017-09-03T01:20:00Z,17.0020,-81.5010,5.0,6.0,60.0,8.0,'1111122,1111122,1111122' 
NDBC,ioos:station:wmo:42057:1,2017-09-03T02:40:00Z,17.0020,-81.5010,5.0,7.0,70.0,8.0,'1111122,1111122,1111122' 
NDBC,ioos:station:wmo:42057:1,2017-09-03T03:50:00Z,17.0020,-81.5010,5.0,6.0,70.0,7.0,'1111122,1111122,1111122' 
NDBC,ioos:station:wmo:42057:1,2017-09-03T04:40:00Z,17.0020,-81.5010,5.0,6.0,70.0,7.0,'1111122,1111122,1111122' 
NDBC,ioos:station:wmo:42057:1,2017-09-03T05:20:00Z,17.0020,-81.5010,5.0,5.0,70.0,6.0,'1111122,1111122,1111122' 
NDBC,ioos:station:wmo:42057:1,2017-09-03T06:40:00Z,17.0020,-81.5010,5.0,5.0,70.0,6.0,'1111122,1111122,1111122' 
NDBC,ioos:station:wmo:42057:1,2017-09-03T07:40:00Z,17.0020,-81.5010,5.0,5.0,80.0,6.0,'1111122,1111122,1111122' 
NDBC,ioos:station:wmo:42057:1,2017-09-03T08:40:00Z,17.0020,-81.5010,5.0,4.0,70.0,5.0,'1111122,1111122,1111122' 
NDBC,ioos:station:wmo:42057:1,2017-09-03T09:50:00Z,17.0020,-81.5010,5.0,5.0,70.0,6.0,'1111122,1111122,1111122' 
NDBC,ioos:station:wmo:42057:1,2017-09-03T10:50:00Z,17.0020,-81.5010,5.0,5.0,70.0,7.0,'1111122,1111122,1111122' 
NDBC,ioos:station:wmo:42057:1,2017-09-03T11:40:00Z,17.0020,-81.5010,5.0,5.0,70.0,6.0,'1111122,1111122,1111122' 
NDBC,ioos:station:wmo:42057:1,2017-09-03T12:40:00Z,17.0020,-81.5010,5.0,4.0,70.0,5.0,'1111122,1111122,1111122' 
NDBC,ioos:station:wmo:42057:1,2017-09-03T13:40:00Z,17.0020,-81.5010,5.0,4.0,80.0,5.0,'1111122,1111122,1111122' 
NDBC,ioos:station:wmo:42057:1,2017-09-03T14:40:00Z,17.0020,-81.5010,5.0,4.0,80.0,5.0,'1111122,1111122,1111122' 
NDBC,ioos:station:wmo:42057:1,2017-09-03T15:40:00Z,17.0020,-81.5010,5.0,5.0,70.0,6.0,'1111122,1111122,1111122' 
NDBC,ioos:station:wmo:42057:1,2017-09-03T16:40:00Z,17.0020,-81.5010,5.0,5.0,60.0,7.0,'1111122,1111122,1111122' 
NDBC,ioos:station:wmo:42057:1,2017-09-03T17:40:00Z,17.0020,-81.5010,5.0,4.0,60.0,6.0,'1111122,1111122,1111122' 
NDBC,ioos:station:wmo:42057:1,2017-09-03T18:40:00Z,17.0020,-81.5010,5.0,4.0,60.0,5.0,'1111122,1111122,1111122' 
NDBC,ioos:station:wmo:42057:1,2017-09-03T19:40:00Z,17.0020,-81.5010,5.0,5.0,50.0,6.0,'1111122,1111122,1111122' 
NDBC,ioos:station:wmo:42057:1,2017-09-03T20:40:00Z,17.0020,-81.5010,5.0,5.0,60.0,7.0,'1111122,1111122,1111122' 
NDBC,ioos:station:wmo:42057:1,2017-09-03T21:40:00Z,17.0020,-81.5010,5.0,5.0,60.0,6.0,'1111122,1111122,1111122' 
NDBC,ioos:station:wmo:42057:1,2017-09-03T22:50:00Z,17.0020,-81.5010,5.0,5.0,50.0,5.0,'1111122,1111122,1111122' 
NDBC,ioos:station:wmo:42057:1,2017-09-03T23:50:00Z,17.0020,-81.5010,5.0,5.0,50.0,6.0,'1111122,1111122,1111122' 
NDBC,ioos:station:wmo:42057:1,2017-09-04T00:40:00Z,17.0020,-81.5010,5.0,5.0,60.0,6.0,'1111122,1111122,1111122' 
NDBC,ioos:station:wmo:42057:1,2017-09-04T01:40:00Z,17.0020,-81.5010,5.0,6.0,60.0,7.0,'1111122,1111122,1111122' 
NDBC,ioos:station:wmo:42057:1,2017-09-04T02:40:00Z,17.0020,-81.5010,5.0,6.0,50.0,7.0,'1111122,1111122,1111122' 
NDBC,ioos:station:wmo:42057:1,2017-09-04T03:50:00Z,17.0020,-81.5010,5.0,5.0,70.0,6.0,'1111122,1111122,1111122' 
NDBC,ioos:station:wmo:42057:1,2017-09-04T04:50:00Z,17.0020,-81.5010,5.0,5.0,60.0,6.0,'1111122,1111122,1111122' 
NDBC,ioos:station:wmo:42057:1,2017-09-04T05:40:00Z,17.0020,-81.5010,5.0,6.0,70.0,7.0,'1111122,1111122,1111122' 
NDBC,ioos:station:wmo:42057:1,2017-09-04T06:40:00Z,17.0020,-81.5010,5.0,6.0,70.0,7.0,'1111122,1111122,1111122' 
NDBC,ioos:station:wmo:42057:1,2017-09-04T07:40:00Z,17.0020,-81.5010,5.0,6.0,70.0,7.0,'1111122,1111122,1111122' 
NDBC,ioos:station:wmo:42057:1,2017-09-04T08:40:00Z,17.0020,-81.5010,5.0,5.0,70.0,7.0,'1111122,1111122,1111122' 
NDBC,ioos:station:wmo:42057:1,2017-09-04T09:50:00Z,17.0020,-81.5010,5.0,5.0,70.0,7.0,'1111122,1111122,1111122' 
NDBC,ioos:station:wmo:42057:1,2017-09-04T10:40:00Z,17.0020,-81.5010,5.0,5.0,80.0,7.0,'1111122,1111122,1111122' 
NDBC,ioos:station:wmo:42057:1,2017-09-04T11:40:00Z,17.0020,-81.5010,5.0,5.0,70.0,6.0,'1111122,1111122,1111122' 
NDBC,ioos:station:wmo:42057:1,2017-09-04T12:40:00Z,17.0020,-81.5010,5.0,4.0,70.0,6.0,'1111122,1111122,1111122' 
NDBC,ioos:station:wmo:42057:1,2017-09-04T13:40:00Z,17.0020,-81.5010,5.0,5.0,70.0,6.0,'1111122,1111122,1111122' 
NDBC,ioos:station:wmo:42057:1,2017-09-04T14:40:00Z,17.0020,-81.5010,5.0,5.0,70.0,6.0,'1111122,1111122,1111122' 
NDBC,ioos:station:wmo:42057:1,2017-09-04T15:40:00Z,17.0020,-81.5010,5.0,4.0,70.0,5.0,'1111122,1111122,1111122' 
NDBC,ioos:station:wmo:42057:1,2017-09-04T16:50:00Z,17.0020,-81.5010,5.0,6.0,60.0,7.0,'1111122,1111122,1111122' 
NDBC,ioos:station:wmo:42057:1,2017-09-04T17:40:00Z,17.0020,-81.5010,5.0,4.0,60.0,5.0,'1111122,1111122,1111122' 
NDBC,ioos:station:wmo:42057:1,2017-09-04T18:50:00Z,17.0020,-81.5010,5.0,4.0,80.0,5.0,'1111122,1111122,1111122' 
NDBC,ioos:station:wmo:42057:1,2017-09-04T19:40:00Z,17.0020,-81.5010,5.0,4.0,80.0,5.0,'1111122,1111122,1111122' 
NDBC,ioos:station:wmo:42057:1,2017-09-04T20:40:00Z,17.0020,-81.5010,5.0,4.0,70.0,5.0,'1111122,1111122,1111122' 
NDBC,ioos:station:wmo:42057:1,2017-09-04T21:50:00Z,17.0020,-81.5010,5.0,4.0,80.0,5.0,'1111122,1111122,1111122' 
NDBC,ioos:station:wmo:42057:1,2017-09-04T22:40:00Z,17.0020,-81.5010,5.0,4.0,70.0,5.0,'1111122,1111122,1111122' 
NDBC,ioos:station:wmo:42057:1,2017-09-05T00:40:00Z,17.0020,-81.5010,5.0,5.0,60.0,6.0,'1111122,1111122,1111122' 
NDBC,ioos:station:wmo:42057:1,2017-09-05T01:40:00Z,17.0020,-81.5010,5.0,5.0,70.0,6.0,'1111122,1111122,1111122' 
NDBC,ioos:station:wmo:42057:1,2017-09-05T02:40:00Z,17.0020,-81.5010,5.0,4.0,80.0,5.0,'1111122,1111122,1111122' 
NDBC,ioos:station:wmo:42057:1,2017-09-05T03:40:00Z,17.0020,-81.5010,5.0,4.0,80.0,5.0,'1111122,1111122,1111122' 
NDBC,ioos:station:wmo:42057:1,2017-09-05T04:40:00Z,17.0020,-81.5010,5.0,3.0,90.0,4.0,'1111122,1111122,1111122' 
NDBC,ioos:station:wmo:42057:1,2017-09-05T05:40:00Z,17.0020,-81.5010,5.0,4.0,90.0,5.0,'1111122,1111122,1111122' 
NDBC,ioos:station:wmo:42057:1,2017-09-05T06:40:00Z,17.0020,-81.5010,5.0,4.0,70.0,5.0,'1111122,1111122,1111122' 
NDBC,ioos:station:wmo:42057:1,2017-09-05T07:50:00Z,17.0020,-81.5010,5.0,4.0,90.0,5.0,'1111122,1111122,1111122' 
NDBC,ioos:station:wmo:42057:1,2017-09-05T08:50:00Z,17.0020,-81.5010,5.0,3.0,70.0,4.0,'1111122,1111122,1111122' 
NDBC,ioos:station:wmo:42057:1,2017-09-05T09:40:00Z,17.0020,-81.5010,5.0,3.0,80.0,3.0,'1111122,1111122,1111122' 
NDBC,ioos:station:wmo:42057:1,2017-09-05T10:40:00Z,17.0020,-81.5010,5.0,3.0,90.0,4.0,'1111122,1111122,1111122' 
NDBC,ioos:station:wmo:42057:1,2017-09-05T11:40:00Z,17.0020,-81.5010,5.0,3.0,70.0,4.0,'1111122,1111122,1111122' 
NDBC,ioos:station:wmo:42057:1,2017-09-05T12:50:00Z,17.0020,-81.5010,5.0,3.0,70.0,4.0,'1111122,1111122,1111122' 
NDBC,ioos:station:wmo:42057:1,2017-09-05T13:50:00Z,17.0020,-81.5010,5.0,3.0,60.0,4.0,'1111122,1111122,1111122' 
NDBC,ioos:station:wmo:42057:1,2017-09-05T14:30:00Z,17.0020,-81.5010,5.0,4.0,70.0,5.0,'1111122,1111122,1111122' 
NDBC,ioos:station:wmo:42057:1,2017-09-05T15:40:00Z,17.0020,-81.5010,5.0,4.0,80.0,5.0,'1111122,1111122,1111122' 
NDBC,ioos:station:wmo:42057:1,2017-09-05T16:50:00Z,17.0020,-81.5010,5.0,4.0,80.0,5.0,'1111122,1111122,1111122' 
NDBC,ioos:station:wmo:42057:1,2017-09-05T17:50:00Z,17.0020,-81.5010,5.0,4.0,100.0,5.0,'1111122,1111122,1111122' 
NDBC,ioos:station:wmo:42057:1,2017-09-05T18:50:00Z,17.0020,-81.5010,5.0,4.0,110.0,5.0,'1111122,1111122,1111122' 
NDBC,ioos:station:wmo:42057:1,2017-09-05T19:40:00Z,17.0020,-81.5010,5.0,4.0,110.0,5.0,'1111122,1111122,1111122' 
NDBC,ioos:station:wmo:42057:1,2017-09-05T20:40:00Z,17.0020,-81.5010,5.0,3.0,120.0,4.0,'1111122,1111122,1111122' 
NDBC,ioos:station:wmo:42057:1,2017-09-05T21:50:00Z,17.0020,-81.5010,5.0,2.0,130.0,3.0,'1111122,1111122,1111122' 
NDBC,ioos:station:wmo:42057:1,2017-09-05T22:50:00Z,17.0020,-81.5010,5.0,2.0,120.0,2.0,'1111122,1111122,1111122' 
NDBC,ioos:station:wmo:42057:1,2017-09-05T23:40:00Z,17.0020,-81.5010,5.0,3.0,60.0,5.0,'1111122,1111122,1111122' 
NDBC,ioos:station:wmo:42057:1,2017-09-06T00:40:00Z,17.0020,-81.5010,5.0,2.0,60.0,2.0,'1111122,1111122,1111122' 
NDBC,ioos:station:wmo:42057:1,2017-09-06T01:40:00Z,17.0020,-81.5010,5.0,1.0,60.0,2.0,'1111122,1111122,1111122' 
NDBC,ioos:station:wmo:42057:1,2017-09-07T15:00:00Z,17.0020,-81.5010,5.0,4.0,40.0,5.0,'1111122,1111122,1111122' 
NDBC,ioos:station:wmo:42057:1,2017-09-07T15:50:00Z,17.0020,-81.5010,5.0,4.0,30.0,5.0,'1111122,1111122,1111122' 
NDBC,ioos:station:wmo:42057:1,2017-09-07T16:50:00Z,17.0020,-81.5010,5.0,3.0,50.0,4.0,'1111122,1111122,1111122' 
NDBC,ioos:station:wmo:42057:1,2017-09-07T17:40:00Z,17.0020,-81.5010,5.0,3.0,40.0,4.0,'1111122,1111122,1111122' 
NDBC,ioos:station:wmo:42057:1,2017-09-07T18:40:00Z,17.0020,-81.5010,5.0,2.0,20.0,3.0,'1111122,1111122,1111122' 
NDBC,ioos:station:wmo:42057:1,2017-09-07T19:40:00Z,17.0020,-81.5010,5.0,2.0,30.0,3.0,'1111122,1111122,1111122' 
NDBC,ioos:station:wmo:42057:1,2017-09-07T20:50:00Z,17.0020,-81.5010,5.0,3.0,10.0,4.0,'1111122,1111122,1111122' 
NDBC,ioos:station:wmo:42057:1,2017-09-07T21:50:00Z,17.0020,-81.5010,5.0,3.0,10.0,4.0,'1111122,1111122,1111122' 
NDBC,ioos:station:wmo:42057:1,2017-09-07T22:40:00Z,17.0020,-81.5010,5.0,4.0,360.0,5.0,'1111122,1111122,1111122' 
NDBC,ioos:station:wmo:42057:1,2017-09-07T23:40:00Z,17.0020,-81.5010,5.0,5.0,360.0,6.0,'1111122,1111122,1111122' 
NDBC,ioos:station:wmo:42057:1,2017-09-08T00:40:00Z,17.0020,-81.5010,5.0,5.0,350.0,6.0,'1111122,1111122,1111122' 
NDBC,ioos:station:wmo:42057:1,2017-09-08T01:50:00Z,17.0020,-81.5010,5.0,5.0,360.0,6.0,'1111122,1111122,1111122' 
NDBC,ioos:station:wmo:42057:1,2017-09-08T02:10:00Z,17.0020,-81.5010,5.0,5.0,360.0,6.0,'1111122,1111122,1111122' 
NDBC,ioos:station:wmo:42057:1,2017-09-08T03:40:00Z,17.0020,-81.5010,5.0,5.0,360.0,6.0,'1111122,1111122,1111122' 
NDBC,ioos:station:wmo:42057:1,2017-09-08T04:40:00Z,17.0020,-81.5010,5.0,5.0,350.0,6.0,'1111122,1111122,1111122' 
NDBC,ioos:station:wmo:42057:1,2017-09-08T05:40:00Z,17.0020,-81.5010,5.0,5.0,350.0,6.0,'1111122,1111122,1111122' 
NDBC,ioos:station:wmo:42057:1,2017-09-08T06:40:00Z,17.0020,-81.5010,5.0,5.0,350.0,6.0,'1111122,1111122,1111122' 
NDBC,ioos:station:wmo:42057:1,2017-09-08T07:40:00Z,17.0020,-81.5010,5.0,5.0,350.0,6.0,'1111122,1111122,1111122' 
NDBC,ioos:station:wmo:42057:1,2017-09-08T08:40:00Z,17.0020,-81.5010,5.0,4.0,360.0,5.0,'1111122,1111122,1111122' 
NDBC,ioos:station:wmo:42057:1,2017-09-08T09:40:00Z,17.0020,-81.5010,5.0,4.0,340.0,5.0,'1111122,1111122,1111122' 
NDBC,ioos:station:wmo:42057:1,2017-09-08T10:40:00Z,17.0020,-81.5010,5.0,5.0,350.0,6.0,'1111122,1111122,1111122' 
NDBC,ioos:station:wmo:42057:1,2017-09-08T11:40:00Z,17.0020,-81.5010,5.0,4.0,350.0,5.0,'1111122,1111122,1111122' 
NDBC,ioos:station:wmo:42057:1,2017-09-08T12:40:00Z,17.0020,-81.5010,5.0,4.0,330.0,5.0,'1111122,1111122,1111122' 
NDBC,ioos:station:wmo:42057:1,2017-09-08T13:50:00Z,17.0020,-81.5010,5.0,4.0,340.0,5.0,'1111122,1111122,1111122' 
NDBC,ioos:station:wmo:42057:1,2017-09-08T14:50:00Z,17.0020,-81.5010,5.0,4.0,320.0,5.0,'1111122,1111122,1111122' 
NDBC,ioos:station:wmo:42057:1,2017-09-08T15:40:00Z,17.0020,-81.5010,5.0,4.0,330.0,4.0,'1111122,1111122,1111122' 
NDBC,ioos:station:wmo:42057:1,2017-09-08T16:40:00Z,17.0020,-81.5010,5.0,4.0,330.0,5.0,'1111122,1111122,1111122' 
NDBC,ioos:station:wmo:42057:1,2017-09-08T17:50:00Z,17.0020,-81.5010,5.0,4.0,340.0,5.0,'1111122,1111122,1111122' 
NDBC,ioos:station:wmo:42057:1,2017-09-08T18:40:00Z,17.0020,-81.5010,5.0,4.0,330.0,6.0,'1111122,1111122,1111122' 
NDBC,ioos:station:wmo:42057:1,2017-09-08T19:40:00Z,17.0020,-81.5010,5.0,5.0,320.0,6.0,'1111122,1111122,1111122' 
NDBC,ioos:station:wmo:42057:1,2017-09-08T20:50:00Z,17.0020,-81.5010,5.0,6.0,310.0,7.0,'1111122,1111122,1111122' 
NDBC,ioos:station:wmo:42057:1,2017-09-08T21:40:00Z,17.0020,-81.5010,5.0,7.0,320.0,8.0,'1111122,1111122,1111122' 
NDBC,ioos:station:wmo:42057:1,2017-09-08T22:40:00Z,17.0020,-81.5010,5.0,6.0,330.0,7.0,'1111122,1111122,1111122' 
NDBC,ioos:station:wmo:42057:1,2017-09-08T23:30:00Z,17.0020,-81.5010,5.0,6.0,330.0,8.0,'1111122,1111122,1111122' 
NDBC,ioos:station:wmo:42057:1,2017-09-09T00:50:00Z,17.0020,-81.5010,5.0,6.0,330.0,7.0,'1111122,1111122,1111122' 
NDBC,ioos:station:wmo:42057:1,2017-09-09T01:40:00Z,17.0020,-81.5010,5.0,6.0,320.0,7.0,'1111122,1111122,1111122' 
NDBC,ioos:station:wmo:42057:1,2017-09-09T02:40:00Z,17.0020,-81.5010,5.0,4.0,320.0,5.0,'1111122,1111122,1111122' 
NDBC,ioos:station:wmo:42057:1,2017-09-09T03:50:00Z,17.0020,-81.5010,5.0,5.0,290.0,6.0,'1111122,1111122,1111122' 
NDBC,ioos:station:wmo:42057:1,2017-09-09T04:50:00Z,17.0020,-81.5010,5.0,5.0,290.0,6.0,'1111122,1111122,1111122' 
NDBC,ioos:station:wmo:42057:1,2017-09-09T05:40:00Z,17.0020,-81.5010,5.0,6.0,290.0,7.0,'1111122,1111122,1111122' 
NDBC,ioos:station:wmo:42057:1,2017-09-09T06:40:00Z,17.0020,-81.5010,5.0,5.0,270.0,6.0,'1111122,1111122,1111122' 
NDBC,ioos:station:wmo:42057:1,2017-09-09T07:40:00Z,17.0020,-81.5010,5.0,6.0,270.0,7.0,'1111122,1111122,1111122' 
NDBC,ioos:station:wmo:42057:1,2017-09-09T08:50:00Z,17.0020,-81.5010,5.0,6.0,280.0,8.0,'1111122,1111122,1111122' 
NDBC,ioos:station:wmo:42057:1,2017-09-09T09:40:00Z,17.0020,-81.5010,5.0,7.0,280.0,8.0,'1111122,1111122,1111122' 
NDBC,ioos:station:wmo:42057:1,2017-09-09T10:40:00Z,17.0020,-81.5010,5.0,6.0,280.0,8.0,'1111122,1111122,1111122' 
NDBC,ioos:station:wmo:42057:1,2017-09-09T11:50:00Z,17.0020,-81.5010,5.0,6.0,270.0,7.0,'1111122,1111122,1111122' 
NDBC,ioos:station:wmo:42057:1,2017-09-09T12:40:00Z,17.0020,-81.5010,5.0,6.0,270.0,7.0,'1111122,1111122,1111122' 
NDBC,ioos:station:wmo:42057:1,2017-09-09T13:40:00Z,17.0020,-81.5010,5.0,6.0,260.0,7.0,'1111122,1111122,1111122' 
NDBC,ioos:station:wmo:42057:1,2017-09-09T14:20:00Z,17.0020,-81.5010,5.0,5.0,260.0,7.0,'1111122,1111122,1111122' 
NDBC,ioos:station:wmo:42057:1,2017-09-09T15:50:00Z,17.0020,-81.5010,5.0,6.0,250.0,7.0,'1111122,1111122,1111122' 
NDBC,ioos:station:wmo:42057:1,2017-09-09T16:40:00Z,17.0020,-81.5010,5.0,6.0,240.0,8.0,'1111122,1111122,1111122' 
NDBC,ioos:station:wmo:42057:1,2017-09-09T17:40:00Z,17.0020,-81.5010,5.0,7.0,240.0,8.0,'1111122,1111122,1111122' 
NDBC,ioos:station:wmo:42057:1,2017-09-09T18:40:00Z,17.0020,-81.5010,5.0,7.0,230.0,9.0,'1111122,1111122,1111122' 
NDBC,ioos:station:wmo:42057:1,2017-09-09T19:40:00Z,17.0020,-81.5010,5.0,7.0,250.0,8.0,'1111122,1111122,1111122' 
NDBC,ioos:station:wmo:42057:1,2017-09-09T20:40:00Z,17.0020,-81.5010,5.0,7.0,240.0,9.0,'1111122,1111122,1111122' 
NDBC,ioos:station:wmo:42057:1,2017-09-09T21:40:00Z,17.0020,-81.5010,5.0,7.0,240.0,8.0,'1111122,1111122,1111122' 
NDBC,ioos:station:wmo:42057:1,2017-09-09T22:40:00Z,17.0020,-81.5010,5.0,6.0,240.0,8.0,'1111122,1111122,1111122' 
NDBC,ioos:station:wmo:42057:1,2017-09-09T23:40:00Z,17.0020,-81.5010,5.0,6.0,250.0,8.0,'1111122,1111122,1111122' 
NDBC,ioos:station:wmo:42057:1,2017-09-10T00:40:00Z,17.0020,-81.5010,5.0,7.0,240.0,8.0,'1111122,1111122,1111122' 
NDBC,ioos:station:wmo:42057:1,2017-09-10T01:40:00Z,17.0020,-81.5010,5.0,6.0,240.0,8.0,'1111122,1111122,1111122' 
NDBC,ioos:station:wmo:42057:1,2017-09-10T02:40:00Z,17.0020,-81.5010,5.0,6.0,240.0,7.0,'1111122,1111122,1111122' 
NDBC,ioos:station:wmo:42057:1,2017-09-10T03:20:00Z,17.0020,-81.5010,5.0,7.0,240.0,8.0,'1111122,1111122,1111122' 
NDBC,ioos:station:wmo:42057:1,2017-09-10T04:40:00Z,17.0020,-81.5010,5.0,7.0,240.0,8.0,'1111122,1111122,1111122' 
NDBC,ioos:station:wmo:42057:1,2017-09-10T05:40:00Z,17.0020,-81.5010,5.0,6.0,250.0,8.0,'1111122,1111122,1111122' 
NDBC,ioos:station:wmo:42057:1,2017-09-10T06:40:00Z,17.0020,-81.5010,5.0,6.0,250.0,7.0,'1111122,1111122,1111122' 
NDBC,ioos:station:wmo:42057:1,2017-09-10T07:40:00Z,17.0020,-81.5010,5.0,6.0,230.0,7.0,'1111122,1111122,1111122' 
NDBC,ioos:station:wmo:42057:1,2017-09-10T08:40:00Z,17.0020,-81.5010,5.0,7.0,220.0,8.0,'1111122,1111122,1111122' 
NDBC,ioos:station:wmo:42057:1,2017-09-10T09:50:00Z,17.0020,-81.5010,5.0,7.0,220.0,8.0,'1111122,1111122,1111122' 
NDBC,ioos:station:wmo:42057:1,2017-09-10T10:40:00Z,17.0020,-81.5010,5.0,6.0,220.0,8.0,'1111122,1111122,1111122' 
NDBC,ioos:station:wmo:42057:1,2017-09-10T11:40:00Z,17.0020,-81.5010,5.0,6.0,220.0,8.0,'1111122,1111122,1111122' 
NDBC,ioos:station:wmo:42057:1,2017-09-10T12:40:00Z,17.0020,-81.5010,5.0,7.0,210.0,9.0,'1111122,1111122,1111122' 
NDBC,ioos:station:wmo:42057:1,2017-09-10T13:40:00Z,17.0020,-81.5010,5.0,7.0,210.0,8.0,'1111122,1111122,1111122' 
NDBC,ioos:station:wmo:42057:1,2017-09-10T14:40:00Z,17.0020,-81.5010,5.0,9.0,210.0,13.0,'1111122,1111122,1111122' 
NDBC,ioos:station:wmo:42057:1,2017-09-10T15:40:00Z,17.0020,-81.5010,5.0,8.0,210.0,10.0,'1111122,1111122,1111122' 
NDBC,ioos:station:wmo:42057:1,2017-09-10T16:50:00Z,17.0020,-81.5010,5.0,8.0,210.0,10.0,'1111122,1111122,1111122' 
NDBC,ioos:station:wmo:42057:1,2017-09-10T17:40:00Z,17.0020,-81.5010,5.0,8.0,210.0,10.0,'1111122,1111122,1111122' 
NDBC,ioos:station:wmo:42057:1,2017-09-10T18:40:00Z,17.0020,-81.5010,5.0,8.0,220.0,9.0,'1111122,1111122,1111122' 
NDBC,ioos:station:wmo:42057:1,2017-09-10T19:40:00Z,17.0020,-81.5010,5.0,7.0,220.0,9.0,'1111122,1111122,1111122' 
NDBC,ioos:station:wmo:42057:1,2017-09-10T20:50:00Z,17.0020,-81.5010,5.0,7.0,220.0,8.0,'1111122,1111122,1111122' 
NDBC,ioos:station:wmo:42057:1,2017-09-10T21:50:00Z,17.0020,-81.5010,5.0,7.0,200.0,8.0,'1111122,1111122,1111122' 
NDBC,ioos:station:wmo:42057:1,2017-09-10T22:40:00Z,17.0020,-81.5010,5.0,7.0,190.0,8.0,'1111122,1111122,1111122' 
NDBC,ioos:station:wmo:42057:1,2017-09-10T23:40:00Z,17.0020,-81.5010,5.0,6.0,200.0,7.0,'1111122,1111122,1111122' 
NDBC,ioos:station:wmo:42057:1,2017-09-11T00:40:00Z,17.0020,-81.5010,5.0,6.0,190.0,7.0,'1111122,1111122,1111122' 
NDBC,ioos:station:wmo:42057:1,2017-09-11T01:40:00Z,17.0020,-81.5010,5.0,6.0,190.0,7.0,'1111122,1111122,1111122' 
NDBC,ioos:station:wmo:42057:1,2017-09-11T02:40:00Z,17.0020,-81.5010,5.0,6.0,190.0,8.0,'1111122,1111122,1111122' 
NDBC,ioos:station:wmo:42057:1,2017-09-11T03:40:00Z,17.0020,-81.5010,5.0,6.0,180.0,7.0,'1111122,1111122,1111122' 
NDBC,ioos:station:wmo:42057:1,2017-09-11T04:40:00Z,17.0020,-81.5010,5.0,7.0,180.0,8.0,'1111122,1111122,1111122' 
NDBC,ioos:station:wmo:42057:1,2017-09-11T05:50:00Z,17.0020,-81.5010,5.0,7.0,180.0,8.0,'1111122,1111122,1111122' 
NDBC,ioos:station:wmo:42057:1,2017-09-11T06:40:00Z,17.0020,-81.5010,5.0,6.0,190.0,7.0,'1111122,1111122,1111122' 
NDBC,ioos:station:wmo:42057:1,2017-09-11T07:40:00Z,17.0020,-81.5010,5.0,6.0,190.0,8.0,'1111122,1111122,1111122' 
NDBC,ioos:station:wmo:42057:1,2017-09-11T08:40:00Z,17.0020,-81.5010,5.0,6.0,200.0,7.0,'1111122,1111122,1111122' 
NDBC,ioos:station:wmo:42057:1,2017-09-11T09:50:00Z,17.0020,-81.5010,5.0,5.0,190.0,7.0,'1111122,1111122,1111122' 